Simultaneous Nadir Overpasses (SNOs) Predictions

Prediction of SNOs between GOES-15 and METOP-C Satellite Orbit:

Table of predicted SNOs for the next 14.0 days since TLE Epoch: 11/25/2023
Index Date Time (GOES-15) GOES-15 Lat,Lon METOP-C Lat,Lon Distance(km) Time Diff (sec)
1 11/25/2023 17:37:00 0.21, 61.49 -0.47, 58.52 339.53 80
2 11/26/2023 17:13:42 0.22, 61.47 0.67, 63.51 231.64 80
3 11/28/2023 05:32:35 -0.20, 61.35 0.34, 58.94 274.48 80
4 11/29/2023 05:14:36 -0.21, 61.32 -0.81, 63.93 297.35 80
5 11/30/2023 17:33:36 0.19, 61.37 -0.26, 59.34 231.25 80
6 12/01/2023 17:10:16 0.19, 61.36 0.84, 64.34 339.59 80
7 12/03/2023 05:29:10 -0.18, 61.24 0.16, 59.77 167.68 80
8 12/04/2023 05:11:11 -0.18, 61.22 -0.99, 64.76 404.06 80
9 12/05/2023 17:30:10 0.17, 61.26 -0.05, 60.17 123.78 80
10 12/06/2023 17:06:51 0.18, 61.25 1.05, 65.17 446.88 80
11 12/08/2023 05:25:44 -0.16, 61.15 -0.06, 60.60 61.63 80
